Location: Amsterdam
(30.7274°N, 84.4357°W)
Time: 19:16:28
(UTC+00:00)

Altair - Pass Details

Date: 11 August 2024
Orbit: 1501 x 1682 km, 47.2° (Epoch: 07 September)

Event Time Altitude Azimuth Distance (km) Brightness Sun altitude
Rises 20:10:27 0° 288° (WNW) 4,844 10.6 52.7°
Reaches altitude 10° 20:14:17 10° 300° (WNW) 3,830 10.1 51.9°
Maximum altitude 20:22:23 29° 357° (N) 2,587 9.0 50.3°
Drops below altitude 10° 20:30:15 10° 54° (NE) 3,711 9.3 48.6°
Sets 20:33:53 0° 66° (ENE) 4,672 9.6 47.9°
